Regional Weather Roundup
Issued by NWS

Home | Current Version | Previous Version | Graphics & Text | Print | Product List | Glossary On
Versions: 1 2 3 4 5 6 7 8 9 10 11 12 13 14 15 16 17 18 19 20 21 22 23 24 25 26 27 28 29 30 31 32 33 34 35 36 37 38 39 40 41 42 43 44 45 46 47 48 49 50
000
ASUS43 KMKX 230421
RWRWI

WISCONSIN REGIONAL WEATHER ROUNDUP
NATIONAL WEATHER SERVICE MILWAUKEE/SULLIVAN WI
1000 PM CST MON JAN 22 2018

NOTE: "FAIR" INDICATES FEW OR NO CLOUDS BELOW 12,000 FEET WITH NO
SIGNIFICANT WEATHER AND/OR OBSTRUCTIONS TO VISIBILITY.

WIZ001-002-006>008-014>016-023>028-230500-
NORTHWEST WISCONSIN

CITY           SKY/WX    TMP DP  RH WIND       PRES   REMARKS
SUPERIOR ARPT  CLOUDY    24  15  69 N12       29.89R WCI  12
ASHLAND        CLOUDY    21  19  92 N21       29.84S WCI   5
HAYWARD        MIX PCPN  23  19  85 N16G25    29.77R WCI  10
SIREN          CLOUDY    26  20  81 N14G25    29.81R WCI  14
CUMBERLAND     CLOUDY    25  21  86 N16G22    29.73R WCI  12
RICE LAKE      CLOUDY    25  22  91 N17G24    29.74R WCI  11
CHETEK         LGT SNOW  25  22  91 N8        29.74R WCI  16
LADYSMITH      CLOUDY    26  23  86 N10       29.72R WCI  17
EAU CLAIRE     LGT SNOW  27  24  89 N10       29.69R FOG     WCI  17
MENOMONIE      LGT SNOW  28  25  91 NW15      29.72R WCI  16
NEW RICHMOND   CLOUDY    26  23  89 N15       29.77R WCI  14
OSCEOLA        FLURRIES  28  23  82 N17G25    29.81R WCI  15
$$

WIZ003>005-009-010-017-018-230500-
NORTH CENTRAL WISCONSIN

CITY           SKY/WX    TMP DP  RH WIND       PRES   REMARKS
MANITOWISH WTR CLOUDY    22  20  95 N13G21    29.66R WCI   9
ARBOR VITAE    LGT SNOW  24  22  91 N9        29.65R WCI  14
WOODRUFF       LGT SNOW  24  22  91 N9        29.65R WCI  14
RHINELANDER    LGT SNOW  24  21  88 N10       29.63S FOG     WCI  14
EAGLE RIVER    CLOUDY    22  21  95 NE9       29.64R WCI  12
LAND O LAKES   CLOUDY    22  20  90 N14       29.66R WCI  10
PHILLIPS       CLOUDY    23  21  93 N12G20    29.68R WCI  11
TOMAHAWK       CLOUDY    24  21  89 N8        29.65S WCI  15
MEDFORD        CLOUDY    25  21  83 N15G21    29.61S WCI  13
MERRILL        CLOUDY    27  23  84 N13       29.62R WCI  16
$$

WIZ029-030-035-036-043>047-230500-
CENTRAL WISCONSIN

CITY           SKY/WX    TMP DP  RH WIND       PRES   REMARKS
WAUSAU         CLOUDY    28  24  85 N8        29.57S WCI  20
MOSINEE        CLOUDY    28  27  93 N10       29.59  WCI  19
MARSHFIELD     CLOUDY    28  25  88 NE14      29.57S WCI  17
STEVENS POINT  CLOUDY    28  26  94 NE13G20   29.57S WCI  17
WAUPACA        CLOUDY    32  28  84 N8        29.56R WCI  25
WAUTOMA        CLOUDY    30  28  92 N12       29.53S WCI  20
WISC RAPIDS    NOT AVBL
CAMP DOUGLAS   CLOUDY    32  30  93 N6        29.57R WCI  26
$$

WIZ011>013-019>022-031-037>040-048>050-230500-
NORTHEAST WISCONSIN

CITY           SKY/WX    TMP DP  RH WIND       PRES   REMARKS
ANTIGO         CLOUDY    26  23  87 N13G22    29.58S WCI  15
SHAWANO        CLOUDY    31  28  86 NE18      29.56F WCI  20
OCONTO         CLOUDY    29  27  94 NE10      29.56F WCI  20
STURGEON BAY   LGT SNOW  28  28 100 N20G25    29.54R FOG     WCI  15
GREEN BAY      CLOUDY    30  28  92 N21G28    29.53F WCI  17
MANITOWOC      MIX PCPN  32  31  96 N14G22    29.49F FOG     WCI  22
APPLETON       CLOUDY    28  28 100 N21       29.50F WCI  15
CLINTONVILLE   CLOUDY    30  27  86 NE12G20   29.56S WCI  21
OSHKOSH        CLOUDY    31  29  92 N18G26    29.51R WCI  19
$$

WIZ032>034-041-042-053>061-230500-
SOUTHWEST WISCONSIN

CITY           SKY/WX    TMP DP  RH WIND       PRES   REMARKS
LA CROSSE      CLOUDY    34  31  88 N15       29.60S WCI  24
SPARTA         CLOUDY    31  31  96 N7        29.60R FOG     WCI  25
VIROQUA        CLOUDY    32  32 100 NE12      29.56R WCI  23
BOSCOBEL       CLOUDY    35  32  88 N10       29.54F WCI  27
PRAIRIE DU CHI CLOUDY    34  32  92 NW12      29.54F WCI  25
PLATTEVILLE    CLOUDY    34  34 100 N10       29.51R WCI  26
$$

WIZ056-057-062-063-064-067-068-230500-
SOUTH CENTRAL WISCONSIN

CITY           SKY/WX    TMP DP  RH WIND       PRES   REMARKS
REEDSBURG      CLOUDY    31  31 100 N7        29.55R WCI  24
BARABOO/DELLS  CLOUDY    31  30  96 NE6       29.55R WCI  25
LONE ROCK      CLOUDY    33  32  96 NE10      29.55S FOG     WCI  25
MINERAL POINT  CLOUDY    34  34 100 NE9       29.50R FOG     WCI  26
MADISON        LGT SNOW  32  31  96 N8        29.53R FOG     WCI  25
MIDDLETON      CLOUDY    33  33 100 N8        29.52F WCI  27
WATERTOWN      LGT SNOW  32  32 100 NW8       29.48S WCI  25
MONROE         CLOUDY    32  32 100 N10       29.47F FOG     WCI  24
JANESVILLE     RAIN      34  34 100 N3        29.49F
$$

WIZ051-052-058>065-066-070>072-230500-
SOUTHEAST WISCONSIN

CITY           SKY/WX    TMP DP  RH WIND       PRES   REMARKS
MILWAUKEE      MOCLDY    37  35  92 NE8       29.45R WCI  31
WAUKESHA       CLOUDY    32  32 100 N5        29.45R WCI  27
MILWAUKEE/TIMM MOCLDY    34  32  93 N10       29.44F WCI  26
RACINE         LGT RAIN  36  35  96 N9        29.48R WCI  29
BURLINGTON     MIX PCPN  35  34  93 W7        29.48R WCI  30
KENOSHA        LGT RAIN  40  36  86 W15       29.46R WCI  32
FOND DU LAC    CLOUDY    31  29  92 N20G28    29.49R FOG     WCI  19
SHEBOYGAN      CLOUDY    33  33 100 N14G23    29.46F WCI  23
WEST BEND      RAIN      32  32 100 N10       29.45F WCI  24
JUNEAU         MIX PCPN  31  31  99 NW7       29.51R WCI  24
$$

LSZ147-162-230500-
LAKE SUPERIOR

STATION/POSITION TIME  TEMP    WIND        PRES    WAVE
                       AIR SEA DIR/SP/G            HT/PER
                 (UTC) (F)     (DEG/KT/KT) (MB)    (FT/S)
DEVILS ISLAND    0400   22      30/ 22/ 25 1012.3F
SAXON HARBOR     0330   26      30/ 28/ 32 1009.1S
$$

LMZ867-665-643>646-230500-
LAKE MICHIGAN

STATION/POSITION TIME  TEMP    WIND        PRES    WAVE
                       AIR SEA DIR/SP/G            HT/PER
                 (UTC) (F)     (DEG/KT/KT) (MB)    (FT/S)
NORTHPORT PIER   0340   29      20/  7/ 13 1001.4F
KEWAUNEE LAKESHO 0400   32     360/ 10/ 16  999.1
SHEBOYGAN LAKESH 0400   33      10/ 27/ 31  997.9F
PORT WASHINGTON  0340   35     320/  8/ 17  998.3F
MILWAUKEE LAKESH 0400   35     360/ 11/ 14   N/A
KENOSHA   LAKESH 0400   40     280/ 13/ 20  998.3
$$

TC  - TEMPERATURE IN CELSIUS
VSB - VISIBILITY IN STATUTE MILES
WCI - WIND CHILL INDEX
HX  - HEAT INDEX




USA.gov is the U.S. government's official web portal to all federal, state and local government web resources and services.